DW7061 Weather Reports


Display with metric or nautical units.
time (UTC)temp
F
wind
direction
speed
MPH
gust
MPH
rain 1hr
in
rain 24hr
in
rain mn
in
humidity
%
barometer
mb
20260906022516 59 0.0 0.0 0.00 0.00 0.00 96 1012.8
20260906021518 59 0.0 0.0 0.00 0.00 0.00 96 1012.8
20260906020516 59 0.0 0.0 0.00 0.00 0.00 96 1012.6
20260906015536 60 0.0 0.0 0.00 0.00 0.00 96 1012.6
20260906014516 60 0.0 0.0 0.00 0.00 0.00 96 1012.7
20260906013517 60 0.0 0.0 0.00 0.00 0.00 96 1012.6
20260906012516 60 0.0 0.0 0.00 0.00 0.00 96 1012.6
20260906011516 61 0.0 0.0 0.00 0.00 0.00 96 1012.5
20260906010516 61 0.0 0.0 0.00 0.00 0.00 96 1012.6
20260906005516 62 0.0 0.0 0.00 0.00 0.00 96 1012.4
20260906004516 62 0.0 0.0 0.00 0.00 0.00 96 1012.4
20260906003537 62 0.0 0.0 0.00 0.00 0.00 96 1012.3
20260906002516 62 0.0 0.0 0.00 0.00 0.00 96 1012.2
20260906001557 62 0.0 0.0 0.00 0.00 0.00 96 1011.9
20260906000537 63 0.0 0.0 0.00 0.00 0.00 96 1011.9
20260905235516 63 0.0 0.0 0.00 0.00 0.00 96 1011.6
20260905234516 63 0.0 0.0 0.00 0.00 0.00 96 1011.6
20260905233516 63 0.0 0.0 0.00 0.00 0.00 96 1011.6
20260905232517 63 0.0 0.0 0.00 0.00 0.00 96 1011.5
20260905231516 63 0.0 0.0 0.00 0.00 0.00 95 1011.4
20260905230517 63 0.0 0.0 0.00 0.00 0.00 95 1011.4
20260905225516 63 0.0 0.0 0.00 0.00 0.00 95 1011.3
20260905224516 63 0.0 0.0 0.00 0.00 0.00 95 1011.1
20260905223516 64 0.0 0.0 0.00 0.00 0.00 95 1011.2
20260905222516 64 0.0 0.0 0.00 0.00 0.00 95 1011.1
20260905221516 64 0.0 0.0 0.00 0.00 0.00 94 1011.0
20260905220557 65 0.0 0.0 0.00 0.00 0.00 94 1010.8
20260905215516 65 0.0 0.0 0.00 0.00 0.00 94 1010.9
20260905214516 65 0.0 0.0 0.00 0.00 0.00 94 1010.7
20260905213516 66 0.0 0.0 0.00 0.00 0.00 94 1010.7
20260905212516 66 0.0 0.0 0.00 0.00 0.00 93 1010.6
20260905211516 66 0.0 0.0 0.00 0.00 0.00 91 1010.4
20260905210517 67 0.0 0.0 0.00 0.00 0.00 88 1010.4
20260905205517 68 0.0 0.0 0.00 0.00 0.00 86 1010.6
20260905204516 69 0.0 0.0 0.00 0.00 0.00 84 1010.4
20260905203516 70 0.0 0.0 0.00 0.00 0.00 82 1010.5
20260905202516 72 0.0 0.0 0.00 0.00 0.00 78 1010.5
20260905201537 74 0.0 1.0 0.00 0.00 0.00 73 1010.5
20260905200516 74 0.0 2.0 0.00 0.00 0.00 68 1010.3
20260905195537 73 0.0 3.0 0.00 0.00 0.00 71 1010.1
20260905194516 73 0.0 1.0 0.00 0.00 0.00 73 1010.1
20260905193516 72 0.0 0.0 0.00 0.00 0.00 75 1010.2
20260905192537 71 0.0 0.0 0.00 0.00 0.00 78 1010.2
20260905191516 71 0.0 0.0 0.00 0.00 0.00 76 1010.2
20260905190516 70 0.0 0.0 0.00 0.00 0.00 77 1010.2
20260905185516 70 0.0 0.0 0.00 0.00 0.00 77 1010.3
20260905184516 70 0.0 0.0 0.00 0.00 0.00 78 1010.3
20260905183516 70 0.0 0.0 0.00 0.00 0.00 76 1010.2
20260905182516 71 0.0 0.0 0.00 0.00 0.00 80 1010.5
20260905181516 70 0.0 0.0 0.00 0.00 0.00 78 1010.3
20260905180516 70 0.0 0.0 0.00 0.00 0.00 76 1010.4
20260905175516 71 0.0 0.0 0.00 0.00 0.00 73 1010.4
20260905174516 73 0.0 0.0 0.00 0.00 0.00 71 1010.5
20260905173536 74 0.0 0.0 0.00 0.00 0.00 66 1010.5
20260905172516 74 0.0 1.0 0.00 0.00 0.00 68 1010.4
20260905171516 73 0.0 2.0 0.00 0.00 0.00 67 1010.4
20260905170516 74 0.0 1.0 0.00 0.00 0.00 69 1010.4
20260905165517 73 0.0 1.0 0.00 0.00 0.00 69 1010.4
20260905164536 72 0.0 1.0 0.00 0.00 0.00 71 1010.3
20260905163516 72 0.0 0.0 0.00 0.00 0.00 76 1010.4
20260905162516 72 0.0 3.0 0.00 0.00 0.00 72 1010.4
20260905161516 71 0.0 0.0 0.00 0.00 0.00 73 1010.5
20260905160515 72 0.0 2.0 0.00 0.00 0.00 74 1010.6
20260905155516 71 0.0 0.0 0.00 0.00 0.00 75 1010.6
20260905154516 70 0.0 0.0 0.00 0.00 0.00 75 1010.9
20260905153516 69 0.0 2.0 0.00 0.00 0.00 78 1010.8
20260905152516 68 0.0 3.0 0.00 0.00 0.00 79 1010.6
20260905151537 68 0.0 0.0 0.00 0.00 0.00 79 1010.8
20260905150515 68 0.0 2.0 0.00 0.00 0.00 79 1010.6
20260905145516 68 0.0 2.0 0.00 0.00 0.00 79 1010.6
20260905144516 68 0.0 2.0 0.00 0.00 0.00 80 1010.5
20260905143516 67 0.0 3.0 0.00 0.00 0.00 80 1010.6
20260905142517 67 0.0 2.0 0.00 0.00 0.00 80 1010.5
20260905141518 66 0.0 3.0 0.00 0.00 0.00 83 1010.5
20260905140518 65 0.0 0.0 0.00 0.00 0.00 85 1010.5
20260905135519 65 0.0 2.0 0.00 0.00 0.00 85 1010.6
20260905134518 64 0.0 1.0 0.00 0.00 0.00 87 1010.5
20260905133517 64 0.0 3.0 0.00 0.00 0.00 86 1010.5
20260905132518 64 0.0 1.0 0.00 0.00 0.00 87 1010.6
20260905131518 63 0.0 2.0 0.00 0.00 0.00 88 1010.7
20260905130518 63 0.0 1.0 0.00 0.00 0.00 88 1010.6
20260905125538 63 0.0 2.0 0.00 0.00 0.00 88 1010.6
20260905124518 62 0.0 5.0 0.00 0.00 0.00 89 1010.4
20260905123518 62 0.0 1.0 0.00 0.00 0.00 90 1010.3
20260905122518 62 0.0 2.0 0.00 0.00 0.00 90 1010.3
20260905121518 61 0.0 0.0 0.00 0.00 0.00 91 1010.2
20260905120518 61 0.0 0.0 0.00 0.00 0.00 91 1010.0
20260905115518 60 0.0 0.0 0.00 0.00 0.00 92 1009.8
20260905114517 60 0.0 0.0 0.00 0.00 0.00 92 1009.7
20260905113518 60 0.0 0.0 0.00 0.00 0.00 92 1009.7
20260905112518 60 0.0 0.0 0.00 0.00 0.00 92 1009.6
20260905111518 60 0.0 0.0 0.00 0.00 0.00 92 1009.6
20260905110518 59 0.0 0.0 0.00 0.00 0.00 92 1009.5
20260905105518 59 0.0 0.0 0.00 0.00 0.00 92 1009.4
20260905104538 59 0.0 0.0 0.00 0.00 0.00 92 1009.3
20260905103518 59 0.0 0.0 0.00 0.00 0.00 92 1009.4
20260905102518 59 0.0 0.0 0.00 0.00 0.00 92 1009.3
20260905101538 59 0.0 0.0 0.00 0.00 0.00 92 1009.3
20260905100518 59 0.0 0.0 0.00 0.00 0.00 92 1009.4
20260905095518 60 0.0 0.0 0.00 0.00 0.00 92 1009.5
20260905094519 60 0.0 0.0 0.00 0.00 0.00 92 1009.5
20260905093518 60 0.0 0.0 0.00 0.00 0.00 92 1009.4
20260905092518 59 0.0 0.0 0.00 0.00 0.00 92 1009.4
20260905091517 59 0.0 0.0 0.00 0.00 0.00 92 1009.3
20260905090517 59 0.0 0.0 0.00 0.00 0.00 93 1009.3
20260905085518 59 0.0 0.0 0.00 0.00 0.00 93 1009.3
20260905084620 59 0.0 0.0 0.00 0.00 0.00 93 1009.2
20260905083538 59 0.0 0.0 0.00 0.00 0.00 93 1009.4
20260905082518 59 0.0 0.0 0.00 0.00 0.00 93 1009.3
20260905081518 59 0.0 0.0 0.00 0.00 0.00 93 1009.4
20260905080518 60 0.0 0.0 0.00 0.00 0.00 93 1009.5
20260905075518 60 0.0 0.0 0.00 0.00 0.00 93 1009.6
20260905074518 60 0.0 0.0 0.00 0.00 0.00 93 1009.6
20260905073519 60 0.0 0.0 0.00 0.00 0.00 93 1009.7
20260905072518 60 0.0 0.0 0.00 0.00 0.00 93 1009.8
20260905071517 60 0.0 0.0 0.00 0.00 0.00 92 1009.8
20260905070518 60 0.0 0.0 0.00 0.00 0.00 92 1009.8
20260905065518 61 0.0 0.0 0.00 0.00 0.00 92 1009.9
20260905064558 61 0.0 0.0 0.00 0.00 0.00 91 1009.9
20260905063518 61 0.0 0.0 0.00 0.00 0.00 90 1009.9
20260905062517 62 0.0 0.0 0.00 0.00 0.00 90 1009.9
20260905061518 62 0.0 0.0 0.00 0.00 0.00 89 1009.9
20260905060518 62 0.0 0.0 0.00 0.00 0.00 90 1010.2
20260905055518 62 0.0 0.0 0.00 0.00 0.00 90 1010.3
20260905054517 62 0.0 0.0 0.00 0.00 0.00 90 1010.2
20260905053538 62 0.0 0.0 0.00 0.00 0.00 90 1010.3
20260905052518 62 0.0 0.0 0.00 0.00 0.00 89 1010.4
20260905051517 62 0.0 0.0 0.00 0.00 0.00 89 1010.4
20260905050518 63 0.0 0.0 0.00 0.00 0.00 88 1010.5
20260905045518 63 0.0 0.0 0.00 0.00 0.00 88 1010.6
20260905044517 62 0.0 0.0 0.00 0.00 0.00 88 1010.6
20260905043517 63 0.0 0.0 0.00 0.00 0.00 88 1010.6
20260905042538 63 0.0 0.0 0.00 0.00 0.00 88 1010.6
20260905041517 63 0.0 0.0 0.00 0.00 0.00 87 1010.2
20260905040520 63 0.0 0.0 0.00 0.00 0.00 86 1010.1
20260905035516 64 0.0 0.0 0.00 0.00 0.00 86 1010.3
20260905034516 64 0.0 0.0 0.00 0.00 0.00 85 1010.3
20260905033517 64 0.0 0.0 0.00 0.00 0.00 86 1010.5
20260905032516 64 0.0 0.0 0.00 0.00 0.00 86 1010.6
20260905031536 64 0.0 0.0 0.00 0.00 0.00 86 1010.5
20260905030516 64 0.0 0.0 0.00 0.00 0.00 87 1010.5
20260905025516 65 0.0 0.0 0.00 0.00 0.00 86 1010.5
20260905024516 65 0.0 0.0 0.00 0.00 0.00 85 1010.4
20260905023516 65 0.0 0.0 0.00 0.00 0.00 85 1010.4